[Iaude] MPEC J217: 2024 JW6 [a=1.83,e=0.46,i=7.9,H=26.6]

mpec at cfa.harvard.edu mpec at cfa.harvard.edu
Thu May 9 07:08:29 EDT 2024


M.P.E.C. 2024-J217                                  Issued 2024 May 9, 11:06 UT

     The Minor Planet Electronic Circulars contain information on unusual
         minor planets, routine data on comets and natural satellites,
         and occasional editorial announcements.  They are published
    on behalf of Division F of the International Astronomical Union by the
          Minor Planet Center, Smithsonian Astrophysical Observatory,
                          Cambridge, MA 02138, U.S.A.
			  
             Prepared using the Tamkin Foundation Computer Network

                              MPC at CFA.HARVARD.EDU
            URL https://www.minorplanetcenter.net/    ISSN 1523-6714

                                    2024 JW6                                    


Observations:
     K24J06W* C2024 05 08.30858213 02 45.301+04 23 11.08         21.04wXEJ217F51
     K24J06W  C2024 05 08.31969013 02 42.860+04 20 57.66         20.74wXEJ217F51
     K24J06W  C2024 05 08.33080913 02 40.418+04 18 44.95         20.93wXEJ217F51
     K24J06W  C2024 05 08.41972413 02 20.681+04 00 40.24         20.93GVEJ217F52
     K24J06W  C2024 05 08.42037613 02 20.539+04 00 32.04         20.81GVEJ217F52
     K24J06W 1C2024 05 08.87070 13 01 28.86 +02 20 12.3          20.8 VXEJ217033
     K24J06W 1C2024 05 08.87191 13 01 28.60 +02 19 55.4          20.6 VXEJ217033
     K24J06W 1C2024 05 08.87312 13 01 28.31 +02 19 38.4          20.8 VXEJ217033
     K24J06W 1C2024 05 08.87434 13 01 28.09 +02 19 21.5          20.8 VXEJ217033
     K24J06W KB2024 05 08.91698813 01 21.49 +02 09 47.0          19.2 GXEJ217958
     K24J06W KB2024 05 08.92119613 01 20.46 +02 08 44.7          20.3 GXEJ217I93
     K24J06W KB2024 05 08.92261413 01 20.27 +02 08 28.3          20.0 GXEJ217958
     K24J06W KB2024 05 08.92672713 01 19.24 +02 07 26.4          20.6 GXEJ217I93
     K24J06W KB2024 05 08.92824713 01 18.99 +02 07 09.1          19.9 GXEJ217958
     K24J06W KB2024 05 08.93215613 01 18.01 +02 06 09.2          20.2 GXEJ217I93
     K24J06W KC2024 05 09.44419413 00 02.258+00 02 37.82         20.4 GVEJ217474
     K24J06W KC2024 05 09.44668413 00 01.668+00 01 56.75         20.1 GVEJ217474
     K24J06W KC2024 05 09.44917613 00 01.006+00 01 15.82         20.4 GVEJ217474
     K24J06W KC2024 05 09.45166413 00 00.408+00 00 35.32         20.9 GVEJ217474

Observer details:
033 Karl Schwarzschild Observatory, Tautenburg.  Observers S. Melnikov, C.
    Hogner, F. Ludwig, M. Hartmann, B. Stecklum.  Measurer B. Stecklum.
    1.34-m f/3 Schmidt + CCD.
474 Mount John Observatory, Lake Tekapo.  Observers A. C. Gilmore, P. M.
    Kilmartin.  Measurer P. M. Kilmartin.  1.0-m f/7.7 Reflector + CCD.
958 Observatoire de Dax.  Observer P. Dupouy.  0.50-m f/4.5 Reflector + CMO.
F51 Pan-STARRS 1, Haleakala.  Observers J. Herman, T. Lowe, P. Minguez, A.
    Schultz, I. Smith.  Measurers K. Chambers, T. de Boer, J. Fairlamb, H.
    Gao, M. Huber, C.-C. Lin, E. Magnier, Y. Ramanjooloo, R. Wainscoat, R.
    Weryk.  1.8-m Ritchey-Chretien + CCD.
F52 Pan-STARRS 2, Haleakala.  Observers J. Herman, T. Lowe, P. Minguez, A.
    Schultz, I. Smith.  Measurers K. Chambers, T. de Boer, J. Fairlamb, H.
    Gao, M. Huber, C.-C. Lin, E. Magnier, Y. Ramanjooloo, R. Wainscoat, R.
    Weryk.  1.8-m Ritchey-Chretien + CCD.
I93 St Pardon de Conques.  Observer F. Losse.  0.40-m f/3.7 reflector + CMO.

Orbital elements:
2024 JW6                                                 Earth MOID = 0.0141 AU
Epoch 2024 Mar. 31.0 TT = JDT 2460400.5                 MPC                     
M 334.61937              (2000.0)            P               Q                  
n   0.39788984     Peri.  207.15604     -0.23806789     +0.96564194             
a   1.8307434      Node    49.26520     -0.86427232     -0.16167222             
e   0.4564419      Incl.    7.90467     -0.44312191     -0.20346435             
P   2.48           H   26.62          G   0.15           U   7                  
Residuals in seconds of arc
240508 F51  0.1+  0.2+    240508 033  0.4-  0.5-    240508 I93  0.2-  0.2-
240508 F51  0.0   0.4-    240508 033  0.2+  0.3-    240509 474  0.0   0.2+
240508 F51  0.2+  0.4+    240508 958  1.4-  0.2-    240509 474  0.4+  0.1-
240508 F52  0.0   0.1+    240508 I93  0.0   0.0     240509 474  0.2-  0.2-
240508 F52  0.0   0.0     240508 958  0.8-  0.6+    240509 474  0.1+  0.1+
240508 033  0.2+  0.3-    240508 I93  0.1+  0.0
240508 033  0.2+  0.3-    240508 958  1.1-  1.2+

Ephemeris:
2024 JW6                 a,e,i = 1.83, 0.46, 8                   q = 0.9951
Date    TT    R. A. (2000) Decl.     Delta      r    Elong.  Phase     V
2024 04 09    13 22 20.3 +20 08 50   0.1877  1.1709   152.2    23.5    24.4
...
2024 04 24    13 16 06.9 +19 30 17   0.1056  1.0942   145.3    31.5    23.3
...
2024 05 02    13 10 45.8 +15 30 56   0.06517 1.0602   142.5    35.4    22.3
...
2024 05 08    13 03 18.0 +05 23 32   0.03642 1.0388   143.4    35.4    21.0
2024 05 09    13 01 10.1 +01 53 16   0.03191 1.0355   144.1    34.9    20.7
2024 05 10    12 58 27.5 -02 45 35   0.02757 1.0324   144.9    34.2    20.3
...
2024 05 16    09 24 23.2 -80 40 07   0.01587 1.0162   108.5    70.6    20.1
...
2024 05 24    01 30 24.9 -45 53 30   0.04798 1.0014    75.2   102.2    23.8
...
2024 06 08    01 23 40.5 -34 26 21   0.1181  0.9966    77.7    95.6    25.4

A. U. Tomatic                (C) Copyright 2024 MPC           M.P.E.C. 2024-J217





More information about the Iaude mailing list